FW4334 Weather Reports


Display with metric or nautical units.
time (UTC)temp
F
wind
direction
speed
MPH
gust
MPH
rain 1hr
in
rain 24hr
in
rain mn
in
humidity
%
barometer
mb
20260502194523 68 295 1.0 4.0 0.00 0.26 0.26 91 1009.8
20260502194023 68 302 1.0 3.0 0.00 0.26 0.26 91 1010.0
20260502193523 68 271 1.0 3.0 0.00 0.26 0.26 91 1010.1
20260502193025 68 250 1.0 4.0 0.00 0.26 0.26 91 1009.9
20260502192521 68 264 1.0 4.0 0.00 0.26 0.26 91 1009.9
20260502192021 68 248 0.0 3.0 0.00 0.26 0.26 91 1009.6
20260502191524 68 265 0.0 3.0 0.00 0.26 0.26 91 1009.6
20260502191024 68 264 0.0 3.0 0.00 0.26 0.26 91 1009.6
20260502190523 68 288 0.0 3.0 0.00 0.26 0.26 91 1009.7
20260502190021 68 288 1.0 3.0 0.00 0.26 0.26 91 1009.6
20260502185524 68 285 1.0 3.0 0.00 0.26 0.26 92 1009.7
20260502185020 68 287 0.0 4.0 0.00 0.26 0.26 92 1009.4
20260502184522 68 288 1.0 4.0 0.00 0.26 0.26 91 1009.4
20260502184020 68 360 1.0 4.0 0.00 0.26 0.26 92 1009.0
20260502183520 67 360 1.0 4.0 0.00 0.26 0.26 92 1009.2
20260502183020 67 282 1.0 4.0 0.00 0.26 0.26 92 1008.9
20260502182519 68 360 1.0 4.0 0.00 0.26 0.26 92 1009.2
20260502182019 67 360 0.0 2.0 0.00 0.26 0.26 92 1009.4
20260502181524 67 360 0.0 2.0 0.00 0.26 0.26 92 1009.2
20260502181019 67 360 0.0 2.0 0.01 0.26 0.26 92 1009.3
20260502180518 67 360 0.0 2.0 0.01 0.26 0.26 91 1009.3
20260502170517 69 296 2.0 5.0 0.17 0.25 0.25 91 1009.6
20260502164015 71 360 2.0 8.0 0.19 0.23 0.23 92 1010.4
20260502163513 71 360 2.0 8.0 0.18 0.22 0.22 92 1009.9
20260502163012 71 360 2.0 5.0 0.16 0.20 0.20 93 1010.2
20260502162511 70 360 1.0 4.0 0.15 0.19 0.19 93 1010.1
20260502162014 70 360 0.0 4.0 0.14 0.18 0.18 93 1009.5
20260502161510 70 151 1.0 5.0 0.12 0.16 0.16 93 1009.8
20260502161011 70 143 0.0 3.0 0.08 0.12 0.12 93 1009.8
20260502160513 70 182 0.0 0.0 0.03 0.07 0.07 93 1010.0
20260502152006 67 192 0.0 0.0 0.03 0.04 0.04 91 1010.1
20260502151506 67 192 0.0 0.0 0.04 0.04 0.04 91 1010.1
20260502151011 67 193 0.0 0.0 0.04 0.04 0.04 91 1010.1
20260502150505 67 193 0.0 0.0 0.04 0.04 0.04 91 1010.4
20260502130502 67 360 0.0 0.0 0.00 0.00 0.00 86 1010.5
20260502123559 67 360 0.0 0.0 0.00 0.00 0.00 87 1010.1
20260502123102 67 360 0.0 0.0 0.00 0.00 0.00 87 1010.0
20260502122559 67 360 0.0 0.0 0.00 0.00 0.00 87 1010.2
20260502122059 67 360 0.0 0.0 0.00 0.00 0.00 87 1010.2
20260502121602 67 360 0.0 0.0 0.00 0.00 0.00 87 1010.2
20260502121058 67 360 0.0 0.0 0.00 0.00 0.00 87 1010.1
20260502120558 67 360 0.0 0.0 0.00 0.00 0.00 87 1010.0
20260502120113 67 360 0.0 0.0 0.00 0.00 0.00 87 1010.0
20260502115557 66 144 0.0 0.0 0.00 0.00 0.00 87 1009.9
20260502115056 66 144 0.0 0.0 0.00 0.00 0.00 88 1009.9
20260502114602 66 144 0.0 0.0 0.00 0.00 0.00 88 1009.8
20260502114058 66 144 0.0 0.0 0.00 0.00 0.00 88 1009.9
20260502113556 66 144 0.0 0.0 0.00 0.00 0.00 88 1009.8
20260502113056 66 144 0.0 0.0 0.00 0.00 0.00 88 1009.8
20260502112555 66 144 0.0 0.0 0.00 0.00 0.00 89 1009.8
20260502112058 66 144 0.0 0.0 0.00 0.00 0.00 89 1010.0
20260502111600 66 144 0.0 0.0 0.00 0.00 0.00 89 1010.1
20260502111055 66 144 0.0 0.0 0.00 0.00 0.00 89 1009.9
20260502110554 65 144 0.0 0.0 0.00 0.00 0.00 89 1009.7
20260502110056 65 144 0.0 0.0 0.00 0.00 0.00 90 1009.7
20260502105555 65 144 0.0 0.0 0.00 0.00 0.00 90 1009.7
20260502105054 65 145 0.0 0.0 0.00 0.00 0.00 90 1009.5
20260502104555 65 152 0.0 0.0 0.00 0.00 0.00 91 1009.6
20260502104053 65 145 0.0 0.0 0.00 0.00 0.00 91 1010.0
20260502103553 65 144 0.0 0.0 0.00 0.00 0.00 91 1009.3
20260502103053 65 144 0.0 0.0 0.00 0.00 0.00 91 1009.2
20260502102553 65 144 0.0 0.0 0.00 0.00 0.00 91 1009.0
20260502102056 65 144 0.0 0.0 0.00 0.00 0.00 91 1009.1
20260502101555 66 144 0.0 0.0 0.00 0.00 0.00 91 1009.1
20260502101052 66 144 0.0 0.0 0.00 0.00 0.00 91 1009.0
20260502100551 66 143 0.0 0.0 0.00 0.00 0.00 91 1008.8
20260502100113 66 143 0.0 0.0 0.00 0.00 0.00 91 1008.6
20260502091049 66 142 0.0 0.0 0.00 0.00 0.00 90 1009.0
20260502090549 66 142 0.0 0.0 0.00 0.00 0.00 90 1008.9
20260502071037 66 112 0.0 0.0 0.00 0.00 0.00 89 1011.0
20260502070537 67 112 0.0 0.0 0.00 0.00 0.00 89 1011.0
20260502070039 67 112 0.0 0.0 0.00 0.00 0.00 89 1010.9
20260502065536 67 112 0.0 0.0 0.00 0.00 0.00 89 1010.8
20260502065035 67 112 0.0 0.0 0.00 0.00 0.00 89 1010.7
20260502064540 67 112 0.0 0.0 0.00 0.00 0.00 89 1010.6
20260502064035 67 112 0.0 0.0 0.00 0.00 0.00 89 1010.7
20260502063534 67 112 0.0 0.0 0.00 0.00 0.00 89 1010.5
20260502063034 67 112 0.0 0.0 0.00 0.00 0.00 88 1010.5
20260502062536 67 112 0.0 0.0 0.00 0.00 0.00 88 1010.5
20260502062035 67 112 0.0 0.0 0.00 0.00 0.00 88 1010.8
20260502061532 67 112 0.0 0.0 0.00 0.00 0.00 88 1010.8
20260502061034 67 112 0.0 0.0 0.00 0.00 0.00 88 1010.8
20260502060530 67 112 0.0 0.0 0.00 0.00 0.00 88 1010.9
20260502060030 68 112 0.0 0.0 0.00 0.00 0.00 88 1011.1
20260502055532 68 112 0.0 0.0 0.00 0.00 0.00 88 1011.2
20260502055029 68 112 0.0 0.0 0.00 0.00 0.00 88 1011.4
20260502054529 68 112 0.0 0.0 0.00 0.00 0.00 87 1011.1
20260502054030 68 112 0.0 0.0 0.00 0.00 0.00 87 1011.0
20260502053527 68 112 0.0 0.0 0.00 0.00 0.00 87 1011.2
20260502053027 68 112 0.0 0.0 0.00 0.00 0.00 87 1011.4
20260502052526 68 112 0.0 0.0 0.00 0.00 0.00 87 1011.4
20260502052026 68 112 0.0 0.0 0.00 0.00 0.00 87 1011.2
20260502051543 68 112 0.0 0.0 0.00 0.00 0.00 87 1011.4
20260502051024 69 112 0.0 0.0 0.00 0.00 0.00 86 1011.5
20260502050523 69 112 0.0 0.0 0.00 0.00 0.00 86 1011.7
20260502050022 69 112 0.0 0.0 0.00 0.00 0.00 86 1011.7
20260502045521 69 112 0.0 0.0 0.00 0.01 0.00 85 1011.7
20260502045021 69 112 0.0 0.0 0.00 0.01 0.00 85 1011.6
20260502044520 69 112 0.0 0.0 0.00 0.01 0.00 85 1011.5
20260502044019 70 112 0.0 0.0 0.00 0.01 0.00 84 1011.5
20260502043518 70 112 0.0 0.0 0.00 0.01 0.00 84 1011.5
20260502043017 70 112 0.0 0.0 0.00 0.01 0.00 83 1011.7
20260502042516 70 112 0.0 0.0 0.00 0.01 0.00 83 1011.6
20260502042016 71 112 0.0 0.0 0.00 0.01 0.00 83 1011.6
20260502041516 71 113 0.0 0.0 0.00 0.01 0.00 82 1011.6
20260502041014 71 113 0.0 0.0 0.00 0.01 0.00 82 1011.7
20260502040513 71 113 0.0 0.0 0.00 0.01 0.00 82 1011.5
20260502040013 71 113 0.0 0.0 0.00 0.01 0.00 82 1011.4
20260502035511 71 112 0.0 0.0 0.00 0.01 0.01 82 1011.7
20260502035012 71 112 0.0 0.0 0.00 0.01 0.01 82 1011.8
20260502034518 71 112 0.0 0.0 0.00 0.01 0.01 82 1011.7
20260502034012 71 112 0.0 0.0 0.00 0.01 0.01 82 1011.6
20260502033514 71 112 0.0 0.0 0.00 0.01 0.01 82 1011.4
20260502033014 72 112 0.0 0.0 0.00 0.01 0.01 83 1011.5
20260502032511 72 112 0.0 0.0 0.00 0.01 0.01 83 1011.5
20260502032011 72 112 0.0 0.0 0.00 0.01 0.01 83 1011.7
20260502031511 72 112 0.0 0.0 0.00 0.01 0.01 83 1011.6
20260502031011 72 112 0.0 0.0 0.00 0.01 0.01 83 1011.5
20260502030510 72 112 0.0 0.0 0.00 0.01 0.01 83 1011.6
20260502030010 73 107 0.0 1.0 0.00 0.01 0.01 84 1011.4
20260502025510 73 107 0.0 1.0 0.00 0.01 0.01 84 1010.9
20260502025009 73 107 0.0 4.0 0.00 0.01 0.01 84 1011.3
20260502024509 73 105 1.0 4.0 0.00 0.01 0.01 84 1011.6
20260502024010 73 119 1.0 3.0 0.00 0.01 0.01 84 1011.5
20260502023514 73 136 0.0 3.0 0.00 0.01 0.01 84 1011.4
20260502023009 74 360 0.0 3.0 0.00 0.01 0.01 84 1011.8
20260502022510 74 360 0.0 3.0 0.00 0.01 0.01 83 1011.6
20260502022009 74 360 0.0 3.0 0.00 0.01 0.01 83 1011.7
20260502021509 74 360 0.0 2.0 0.00 0.01 0.01 83 1012.0
20260502021009 74 360 0.0 1.0 0.00 0.01 0.01 83 1011.7
20260502020508 74 360 0.0 1.0 0.00 0.01 0.01 83 1011.2
20260502020008 74 360 0.0 3.0 0.00 0.01 0.01 84 1011.5
20260502015508 74 360 1.0 3.0 0.00 0.01 0.01 84 1011.9
20260502015012 74 360 0.0 2.0 0.00 0.01 0.01 84 1011.7
20260502014512 74 360 0.0 2.0 0.00 0.01 0.01 84 1011.5
20260502014009 75 360 0.0 1.0 0.00 0.01 0.01 84 1011.6
20260502013507 75 360 0.0 3.0 0.00 0.01 0.01 83 1011.6
20260502013007 75 123 0.0 3.0 0.00 0.01 0.01 83 1011.2
20260502012506 76 126 0.0 3.0 0.00 0.01 0.01 82 1010.5
20260502012009 76 119 2.0 3.0 0.00 0.01 0.01 81 1010.7
20260502011505 77 121 1.0 3.0 0.00 0.01 0.01 80 1011.0
20260502011005 77 87 0.0 1.0 0.00 0.01 0.01 76 1011.1
20260502010504 77 87 0.0 1.0 0.00 0.01 0.01 76 1011.1
20260502010004 77 100 0.0 1.0 0.00 0.01 0.01 76 1011.0
20260502005504 77 107 0.0 2.0 0.00 0.12 0.01 76 1011.1
20260502005004 77 86 0.0 2.0 0.00 0.12 0.01 76 1010.9
20260502004504 78 109 0.0 2.0 0.00 0.12 0.01 77 1011.0
20260502004007 78 109 0.0 3.0 0.00 0.12 0.01 77 1011.1
20260502003503 78 9 1.0 4.0 0.00 0.12 0.01 76 1011.0
20260502003010 78 81 0.0 4.0 0.00 0.12 0.01 76 1011.0
20260502002504 78 27 0.0 0.0 0.00 0.12 0.01 75 1011.1
20260502002003 79 89 0.0 0.0 0.00 0.12 0.01 75 1011.1
20260502001503 79 89 0.0 0.0 0.00 0.12 0.01 74 1010.8
20260502001003 79 89 0.0 0.0 0.00 0.12 0.01 73 1010.6
20260502000502 80 90 0.0 1.0 0.00 0.12 0.01 73 1010.6
20260502000003 80 99 0.0 2.0 0.00 0.12 0.01 72 1010.6
20260501235501 81 103 0.0 3.0 0.00 0.12 0.01 72 1010.3
20260501235002 81 42 0.0 4.0 0.00 0.12 0.01 71 1010.2
20260501234502 82 18 0.0 4.0 0.00 0.12 0.01 70 1010.1
20260501234002 82 50 0.0 0.0 0.00 0.12 0.01 67 1010.2
20260501233502 82 323 0.0 0.0 0.00 0.12 0.01 66 1009.8
20260501233002 82 323 0.0 0.0 0.00 0.12 0.01 66 1009.8
20260501232504 82 47 0.0 0.0 0.00 0.12 0.01 67 1009.7
20260501232003 82 47 0.0 0.0 0.00 0.12 0.01 68 1009.7
20260501231501 82 47 0.0 0.0 0.00 0.12 0.01 70 1009.6
20260501231002 83 47 0.0 0.0 0.00 0.12 0.01 68 1009.7
20260501230601 83 47 0.0 0.0 0.00 0.12 0.01 67 1009.8
20260501230114 83 47 0.0 0.0 0.00 0.12 0.01 66 1009.6
20260501225600 83 47 0.0 0.0 0.00 0.12 0.01 67 1009.3
20260501225204 83 47 0.0 0.0 0.00 0.12 0.01 68 1009.2
20260501224600 84 47 0.0 0.0 0.00 0.12 0.01 63 1009.4
20260501224059 84 47 0.0 0.0 0.00 0.12 0.01 62 1009.4
20260501223559 84 47 0.0 0.0 0.00 0.12 0.01 62 1009.4
20260501223100 84 43 0.0 0.0 0.00 0.12 0.01 62 1009.3
20260501222559 85 247 0.0 0.0 0.00 0.12 0.01 60 1009.4
20260501222102 85 248 0.0 0.0 0.00 0.12 0.01 60 1009.2
20260501221600 85 248 0.0 0.0 0.00 0.12 0.01 59 1009.2
20260501221101 86 248 0.0 0.0 0.00 0.12 0.01 59 1009.1
20260501220558 86 248 0.0 0.0 0.00 0.12 0.01 58 1009.0
20260501220058 86 248 0.0 3.0 0.00 0.12 0.01 58 1009.0
20260501215600 86 229 0.0 3.0 0.00 0.12 0.01 57 1008.9
20260501215058 86 278 0.0 2.0 0.00 0.12 0.01 56 1009.1
20260501214607 87 34 0.0 3.0 0.00 0.12 0.01 57 1009.1
20260501214057 87 32 0.0 3.0 0.00 0.12 0.01 56 1009.2
20260501213557 87 335 0.0 3.0 0.00 0.12 0.01 56 1009.3
20260501213103 87 335 0.0 3.0 0.00 0.12 0.01 57 1009.3
20260501212558 87 282 0.0 3.0 0.00 0.12 0.01 57 1009.4
20260501212102 87 283 1.0 3.0 0.00 0.12 0.01 56 1009.2
20260501211600 87 259 0.0 2.0 0.00 0.12 0.01 55 1009.2
20260501211056 87 264 0.0 2.0 0.00 0.12 0.01 56 1009.1
20260501210557 87 237 0.0 2.0 0.00 0.12 0.01 56 1009.0
20260501210056 87 195 0.0 1.0 0.00 0.12 0.01 58 1009.0
20260501205556 86 195 0.0 2.0 0.00 0.12 0.01 59 1008.9
20260501205056 86 195 0.0 3.0 0.00 0.12 0.01 56 1008.9
20260501204556 87 229 0.0 3.0 0.00 0.12 0.01 56 1009.0
20260501204054 87 311 1.0 3.0 0.00 0.12 0.01 55 1009.1
20260501203554 87 44 0.0 1.0 0.00 0.12 0.01 58 1009.1
20260501203059 87 44 0.0 2.0 0.00 0.12 0.01 57 1009.1
20260501202555 87 44 0.0 2.0 0.00 0.12 0.01 56 1009.2
20260501202054 88 42 0.0 2.0 0.00 0.12 0.01 56 1009.4
20260501201554 88 42 0.0 3.0 0.00 0.12 0.01 54 1009.3
20260501201056 88 44 0.0 3.0 0.00 0.12 0.01 55 1009.6
20260501200557 88 34 1.0 2.0 0.00 0.12 0.01 56 1009.6
20260501200051 88 42 0.0 4.0 0.00 0.12 0.01 56 1009.7
20260501195550 87 71 0.0 4.0 0.00 0.12 0.01 57 1009.8
20260501195052 87 304 0.0 3.0 0.00 0.12 0.01 57 1009.9